Date,TemperatureHighF,TemperatureAvgF,TemperatureLowF,DewpointHighF,DewpointAvgF,DewpointLowF,HumidityHigh,HumidityAvg,HumidityLow,PressureMaxIn,PressureMinIn,WindSpeedMaxMPH,WindSpeedAvgMPH,GustSpeedMaxMPH,PrecipitationSumIn
2013-12-1,69.1,46.4,26.4,41.7,31.7,20.9,95,60,33,30.07,29.83,4,1,6,0.00
2013-12-2,68.9,46.9,31.8,39.2,34.3,25.1,94,65,33,29.81,29.57,5,2,6,0.00
2013-12-3,67.1,47.6,33.9,42.9,36.6,29.2,98,69,38,29.57,29.45,14,3,17,0.00
2013-12-4,39.0,27.3,19.9,34.9,19.9,4.8,98,75,51,30.07,29.54,21,15,23,0.00
2013-12-5,19.6,15.5,12.2,5.1,0.6,-2.1,60,51,44,30.33,30.07,21,13,23,0.00
2013-12-6,19.2,12.5,5.5,2.8,-3.7,-12.5,60,48,40,30.54,30.28,17,11,19,0.00
2013-12-7,20.2,12.6,0.5,2.8,-5.4,-17.1,49,43,42,30.57,30.19,10,7,11,0.00
2013-12-8,21.6,18.8,11.0,19.1,12.6,2.2,92,78,46,30.16,29.86,12,6,13,0.00
2013-12-9,20.4,12.6,8.1,8.7,1.9,-4.2,80,63,46,30.33,30.13,14,6,15,0.00
2013-12-10,47.6,27.8,12.2,19.0,6.1,-11.9,66,44,8,30.25,30.04,10,5,15,0.00
2013-12-11,31.0,22.7,15.1,18.1,7.3,-4.6,78,53,31,30.54,30.15,18,7,20,0.00
2013-12-12,49.9,29.4,15.8,23.4,11.6,-1.6,73,48,34,30.45,30.04,9,4,12,0.00
2013-12-13,53.0,38.6,28.6,34.3,28.2,-99.9,79,67,49,31.46,29.72,20,6,21,0.00
2013-12-14,39.7,28.1,22.3,23.7,17.6,12.9,81,65,46,30.19,29.89,21,11,23,0.00
2013-12-15,62.2,43.4,26.1,30.0,21.6,-99.9,74,46,24,30.16,29.95,11,4,14,0.00
2013-12-16,67.4,46.3,32.5,31.6,21.1,10.3,52,38,11,31.60,29.95,11,5,13,0.00
2013-12-17,55.9,39.8,25.9,31.2,21.8,13.1,83,51,29,30.28,30.07,20,4,21,0.00
2013-12-18,69.2,50.9,37.6,36.3,28.4,18.3,54,43,26,30.13,29.72,11,5,13,0.00
2013-12-19,60.3,48.1,23.6,47.1,39.2,17.1,93,72,52,29.74,29.54,25,5,27,0.00
2013-12-20,22.9,19.0,14.4,18.4,11.9,9.8,92,74,61,29.98,29.74,24,10,27,0.00
2013-12-21,24.4,22.5,21.6,22.1,16.6,10.7,97,79,62,31.31,29.60,19,9,21,0.00
2013-12-22,29.3,19.3,1.0,22.0,12.2,-3.4,95,75,52,30.28,29.77,16,8,17,0.00
2013-12-23,23.7,12.7,-3.1,9.5,5.2,-7.5,81,72,54,30.51,30.28,11,4,12,0.00
2013-12-24,30.2,22.6,13.9,29.7,20.0,9.5,98,90,77,30.42,30.01,12,5,14,0.00
2013-12-25,45.3,32.3,22.1,29.9,24.5,20.2,98,74,51,30.33,30.19,11,5,12,0.20
2013-12-26,48.4,35.2,24.8,28.9,22.2,17.0,88,60,45,30.28,30.13,8,3,10,0.00
2013-12-27,56.8,37.7,22.8,32.6,24.6,13.2,90,61,36,30.28,30.10,10,3,11,0.00
2013-12-28,50.3,38.8,27.0,33.1,28.4,21.2,89,67,47,30.10,29.77,28,4,34,0.00
2013-12-29,33.4,16.7,9.6,28.5,3.6,-5.7,86,56,45,30.31,29.98,30,15,34,0.00
2013-12-30,41.3,23.7,7.5,20.4,7.8,-7.6,73,50,42,30.22,30.07,8,3,9,0.00
2013-12-31,54.0,36.2,20.3,28.9,22.5,15.9,87,60,37,30.25,29.95,9,4,11,0.00